SCP
0 0 0 0 0 -0 0 0 0 0 0 0 0 0 0 0 0 0 0 0 0 0 0 0 0 0 0 0 0 0 0 0 0 0 0 0 0 0 0 0 0 0 0 0
0 0 0 0 0 0 0 0 0 0 0 0 0 0 0 0 0 0 0 0 0 0 0 0 0 0 0 0 0 0 0 0 0 0 0 0 0 0 0 0 0 0 0 0
0 0 0 0 0 0 0 0 0 0 0 0 0 0 0 0 0 0 0 0 0 0 0 0 0 0 0 0 0 0 0 0 0 0 0 0 0 0 0 0 0 0 0 0
0 0 0 0 0 -0 0 0 0 0 0 0 0 0 0 0 0 0 0 0 0 0 0 0 0 0 0 0 0 0 0 0 0 0 0 0 0 0 0 0 -0 0 0 0
0 0 0 0 0 -0 0 0 0 0 0 0 0 0 0 0 0 0 0 0 0 0 0 0 0 0 0 0 0 0 0 0 0 0 0 0 0 0 0 0 0 0 0 0
0 0 0 0 0 -0 0 0 0 0 0 0 0 0 0 0 0 0 0 0 0 0 0 0 0 0 0 0 0 0 0 0 0 0 0 0 0 0 0 0 0 0 0 0
0 0 0 0 0 -0 0 0 0 0 0 0 0 0 0 0 0 0 0 0 0 0 0 0 0 0 0 0 0 0 0 0 0 0 0 0 0 0 0 0 0 0 0 0
0 0 0 0 0 0 -0 0 -0 0 0 0 0 0 0 0 0 0 0 0 0 0 0 0 0 0 0 0 0 0 0 0 0 0 0 0 0 0 0 0 0 0 0 0
0 0 0 0 0 0 0 0 0 0 0 0 0 0 0 0 0 0 0 0 0 0 0 0 0 0 0 0 0 0 0 0 0 0 0 0 0 0 -0 0 0 0 0 0
0 0 0 0 0 0 0 0 0 0 0 0 0 0 0 0 0 0 0 0 0 0 0 0 0 0 0 0 0 0 0 0 0 0 0 0 0 0 0 0 0 0 0 0
0 0 0 0 0 0 0 0 0 0 0 0 -0 -0 0 0 0 0 0 0 0 0 0 0 0 0 0 0 0 0 0 0 0 0 0 0 0 0 0 0 0 0 0 0
0 0 0 0 0 0 0 0 0 0 0 0 0 0 -0 -0 -0 0 0 0 0 0 0 0 0 0 0 0 0 0 0 0 0 0 0 0 0 0 0 0 0 0 0 0
0 0 0 0 0 0 0 0 0 0 0 0 0 0 0 0 0 -0 0 0 0 0 0 0 0 0 0 0 0 0 0 0 0 0 0 0 0 0 0 0 0 0 0 0
0 0 0 0 0 0 0 0 0 0 0 0 -0 0 0 0 0 0 0 0 0 0 0 0 0 0 0 0 0 0 0 0 0 0 0 0 0 0 0 0 0 1 0 0
0 0 0 0 0 0 0 0 0 0 0 0 0 -0 0 0 0 0 0 -0 0 0 0 0 0 0 0 0 0 0 0 0 0 0 0 0 0 0 0 0 0 1 1 2
0 0 0 0 0 0 0 0 0 0 0 0 0 0 0 0 0 0 0 0 0 0 0 0 0 0 0 0 0 0 0 0 0 0 0 0 0 0 0 0 1 1 2 1
0 0 0 0 0 0 0 0 0 0 0 0 0 0 0 0 0 0 0 0 0 0 0 0 0 0 0 0 0 0 0 0 0 0 0 0 0 0 1 1 2 1 1 1
0 0 0 0 0 0 0 0 0 0 0 0 0 0 0 0 0 0 0 0 0 0 0 0 0 0 0 0 0 0 0 0 0 0 0 0 1 1 1 1 0 0 1 1
0 0 0 0 0 0 0 0 0 0 0 0 0 0 0 0 0 0 0 0 0 0 0 0 0 0 0 0 0 0 0 0 0 0 0 0 0 0 0 0 0 0 0 0
0 0 0 0 0 0 0 0 0 0 0 0 0 0 0 0 0 0 0 0 0 0 0 0 0 0 0 0 0 0 0 0 0 0 0 0 0 0 0 1 0 0 0 0
0 0 0 0 0 0 0 0 0 0 -0 -0 -0 -0 -0 0 0 0 0 0 0 0 0 0 0 0 0 0 0 0 0 0 0 0 0 0 0 0 0 0 0 1 1 1
0 0 0 0 0 0 0 0 -0 0 -0 -0 -0 -0 0 0 0 0 0 0 0 0 0 0 0 0 0 0 0 0 0 0 0 0 0 0 0 0 0 0 0 0 1 1
0 0 0 0 0 -0 -0 -0 0 -0 -0 -0 0 -0 0 0 -0 0 0 0 0 0 -0 0 0 1 0 0 0 0 0 0 0 0 0 0 0 0 0 0 0 0 0 1
0 0 0 0 0 0 0 0 -0 -0 -0 0 -0 -0 0 0 0 0 -0 -0 0 0 -0 0 0 0 0 1 0 0 0 0 0 0 0 0 0 0 0 0 0 0 0 0
0 0 0 0 0 -0 0 0 -0 -0 -0 -0 0 0 -0 0 0 0 0 0 -0 0 0 0 0 0 0 0 0 0 0 0 0 0 0 0 0 0 0 0 0 0 0 0
0 0 0 0 -0 0 0 0 0 -0 0 0 -0 -0 0 0 0 0 -0 0 0 0 0 0 0 0 0 0 0 1 1 1 0 0 0 0 0 0 0 0 0 0 0 0
0 0 0 0 0 0 0 0 0 0 0 0 0 -0 0 0 0 0 0 0 -0 0 0 0 0 0 0 0 0 0 0 0 0 0 0 0 0 0 0 0 0 0 0 0
Wind_Speed_500mb
59 64 68 70 73 64 51 9 4 6 11 13 10 20 13 7 29 14 14 12 13 15 14 13 13 36 40 41 47 53 49 26 30 38 39 30 38 30 32 17 26 19 25 2
60 62 66 66 66 61 48 16 4 9 4 9 12 14 20 22 26 26 28 22 11 7 12 9 9 9 13 13 47 50 45 38 29 29 18 21 43 36 30 42 42 27 26 19
58 61 63 63 63 53 32 13 5 7 10 7 14 8 17 16 13 22 22 25 21 25 27 24 15 11 2 12 33 30 51 37 46 32 36 33 32 36 47 42 30 35 27 29
56 58 59 60 60 47 25 14 7 5 6 7 16 16 10 14 10 6 12 16 27 24 24 22 31 26 19 24 15 16 38 42 47 43 37 35 43 38 46 49 48 35 36 32
52 54 58 56 58 48 18 17 15 17 24 14 16 9 10 12 9 8 7 16 5 10 19 23 19 9 20 6 17 22 39 37 40 47 41 44 38 41 48 51 49 46 42 36
47 50 53 54 53 50 17 17 13 9 10 10 12 4 8 6 10 10 15 12 16 20 14 21 28 32 36 32 19 13 19 26 23 37 40 44 47 55 50 47 47 46 43 35
42 43 47 48 49 42 24 20 12 10 13 13 14 15 20 28 25 26 19 23 20 8 33 49 43 45 43 36 30 29 12 19 16 21 27 47 28 41 50 49 46 46 35 31
38 40 42 42 43 40 21 21 5 6 14 23 30 15 17 19 25 31 35 34 31 31 32 19 23 24 24 34 35 31 31 20 13 12 25 18 18 22 27 37 44 40 37 36
37 37 37 38 37 37 28 13 5 5 16 2 14 27 26 22 25 21 18 11 20 16 12 16 21 25 26 27 20 26 31 27 18 17 28 30 27 16 30 32 33 39 45 35
38 37 37 37 34 32 27 15 12 8 12 20 12 14 16 13 13 14 17 10 4 11 14 19 21 25 26 33 41 29 27 25 29 23 25 24 2 11 11 24 10 27 28 36
37 38 37 36 35 30 26 19 27 13 15 52 41 36 40 41 33 18 17 17 8 9 10 15 18 16 18 28 34 39 31 25 23 27 26 26 21 17 19 9 10 4 8 20
38 37 37 35 34 33 26 28 20 30 35 52 64 69 70 62 54 34 18 21 12 7 8 6 9 14 8 22 23 7 26 28 21 19 22 11 3 4 4 11 11 9 12 18
40 39 37 38 34 33 33 36 31 37 39 56 31 25 18 32 54 62 37 24 19 11 6 10 7 11 7 15 28 20 15 6 13 7 17 8 6 10 13 14 16 13 12 20
42 42 39 35 37 37 37 41 41 34 21 10 12 13 12 16 26 40 66 43 4 10 16 18 12 10 2 8 11 15 4 17 13 11 8 12 21 24 17 17 16 13 18 28
41 44 40 44 44 42 46 51 49 40 31 9 30 62 4 11 27 40 45 58 49 30 16 13 14 16 10 11 7 16 11 12 15 13 4 12 23 18 15 18 19 22 31 37
45 45 46 46 45 44 32 15 8 11 29 8 8 18 16 9 11 29 39 41 41 35 15 14 21 29 9 8 15 9 15 11 16 11 10 12 18 14 15 19 27 33 33 36
43 46 46 47 46 42 24 12 7 4 22 8 9 10 8 4 12 15 21 30 28 24 26 22 30 17 9 14 17 6 9 9 14 17 11 8 14 11 20 33 35 39 37 38
42 46 52 50 41 26 25 27 38 20 12 8 6 9 11 4 13 10 15 22 27 24 24 22 21 27 16 9 19 10 4 4 4 13 20 9 18 27 31 35 41 44 43 43
41 48 45 23 4 7 5 6 5 29 16 7 8 7 6 4 4 5 9 19 11 16 15 20 19 21 19 19 18 7 10 7 8 16 26 26 26 28 30 31 30 34 35 36
42 32 6 6 5 5 15 11 12 25 15 15 8 12 14 14 4 5 3 8 11 10 18 23 24 25 44 41 23 7 8 17 17 23 33 30 35 30 28 27 24 27 29 29
14 7 6 11 16 11 8 9 13 15 7 15 14 27 20 12 12 6 7 5 8 9 13 14 17 23 37 49 42 32 18 13 20 14 18 14 18 30 28 27 23 26 28 28
17 23 28 18 3 9 9 7 7 10 5 3 6 9 18 13 16 7 7 8 3 10 7 9 16 18 39 45 53 48 31 13 9 3 15 26 8 25 27 29 29 24 26 25
13 3 5 6 6 7 8 5 3 7 2 6 12 5 10 17 21 9 6 6 8 7 7 10 4 19 4 21 32 40 26 20 16 23 24 33 35 24 21 23 20 20 22 23
5 6 6 8 8 5 5 9 4 9 15 32 33 9 5 4 4 6 8 8 8 7 12 8 10 20 16 8 21 36 33 31 27 33 33 35 35 31 27 25 23 23 25 26
6 5 7 7 7 5 4 13 14 16 26 31 19 10 6 2 4 6 4 6 7 7 4 7 23 18 7 8 25 37 43 44 42 39 36 38 36 35 34 28 26 26 28 28
6 9 12 16 19 6 14 15 20 19 36 28 8 4 6 4 5 5 9 6 2 7 8 25 12 10 18 27 35 40 44 46 45 42 39 37 33 32 31 27 24 22 22 22
7 10 15 21 23 19 18 14 17 22 15 5 7 3 4 8 6 7 3 5 7 14 15 12 24 33 37 40 45 47 48 46 42 41 37 34 29 26 24 21 17 14 14 13
Wind_Direction_500mb
354 356 356 356 351 351 2 354 266 71 134 221 212 239 249 338 263 221 264 281 276 287 308 280 258 225 209 209 207 206 218 206 187 203 203 219 205 189 182 221 249 248 291 63
351 355 357 359 355 353 353 332 337 284 311 269 211 221 254 249 265 251 249 248 241 295 291 304 268 237 245 263 213 206 208 231 218 161 168 209 219 195 195 193 251 269 251 238
349 352 357 0 1 355 355 320 268 163 238 283 296 307 248 260 217 259 267 258 261 258 255 257 274 284 245 206 233 191 220 216 233 212 210 187 204 216 195 208 219 249 239 257
347 350 357 360 5 5 23 350 40 3 294 186 311 287 287 270 269 240 251 240 243 262 252 242 251 255 263 234 212 227 224 221 237 231 255 207 196 206 211 209 224 242 253 239
346 349 354 0 3 12 34 359 347 329 285 279 274 230 237 267 294 277 224 258 54 253 256 254 331 0 269 3 185 208 210 222 234 245 229 244 231 225 220 215 225 237 250 263
344 348 352 356 5 14 25 8 337 312 290 289 269 278 313 304 327 246 263 316 306 271 335 340 300 285 281 278 294 278 198 222 212 234 229 238 239 224 230 235 228 225 239 247
342 344 349 352 357 13 12 5 1 308 301 303 305 298 290 284 279 270 273 298 292 305 317 306 271 249 256 255 248 238 251 218 203 237 211 226 240 235 229 238 234 240 237 254
338 339 343 347 349 358 9 347 18 319 295 313 293 297 288 284 283 259 267 276 270 289 297 277 247 227 226 230 233 222 221 224 199 213 214 228 213 221 239 235 238 237 234 232
331 334 337 340 341 345 358 336 345 301 303 354 325 310 296 285 288 276 246 272 283 271 258 255 245 223 207 207 190 213 207 226 262 195 248 234 250 207 211 239 244 229 229 230
326 327 331 331 331 332 339 320 319 292 264 286 305 279 311 305 280 281 288 323 297 224 239 242 242 244 228 219 199 180 197 212 219 223 241 248 139 96 154 207 233 224 219 227
322 324 325 326 323 320 324 298 285 269 258 290 282 268 262 261 259 271 318 293 187 226 249 240 230 255 229 242 217 196 199 200 213 235 229 234 130 141 217 355 42 17 232 224
321 321 320 318 317 311 309 300 285 281 260 267 283 274 259 252 248 278 268 285 298 293 267 250 308 242 254 247 211 206 227 210 230 227 217 111 264 5 5 325 322 318 245 195
314 316 317 316 313 307 298 291 293 286 284 295 278 283 288 257 237 232 244 255 231 233 289 312 280 270 305 245 241 200 197 263 241 178 200 229 258 259 265 283 281 284 237 188
310 314 313 314 312 305 296 282 288 274 271 283 296 338 331 262 251 230 220 225 249 262 274 273 273 278 75 290 321 269 335 161 187 216 273 284 282 273 279 266 250 223 192 174
306 312 312 308 309 307 299 295 282 256 225 284 293 307 280 289 228 227 220 225 238 258 274 233 252 272 287 229 275 254 195 190 215 236 306 272 279 294 279 239 208 179 169 157
309 309 308 307 304 305 308 307 256 249 214 257 285 309 296 273 240 213 214 218 222 223 225 245 255 259 272 272 255 246 230 235 273 283 331 291 280 259 239 199 168 154 161 157
310 309 302 304 301 291 245 251 234 254 178 237 276 280 198 247 144 163 185 194 202 209 221 230 251 244 231 263 259 249 269 280 268 255 242 228 194 176 156 154 144 135 137 139
313 308 306 304 302 275 254 250 243 222 206 227 269 272 252 203 216 154 173 178 198 206 230 236 228 235 225 257 233 268 269 253 205 197 193 205 153 139 133 135 133 129 133 138
315 310 308 307 238 213 245 113 184 228 222 270 242 267 330 92 44 122 195 199 202 204 221 229 218 215 222 223 240 275 193 133 94 160 156 141 137 133 131 129 129 131 137 145
316 317 304 261 231 244 304 245 200 202 219 227 249 251 255 309 251 178 255 209 249 204 215 220 222 235 224 234 230 221 235 237 197 128 124 134 124 122 128 121 127 139 141 147
339 302 267 279 276 299 237 236 201 184 221 211 238 235 242 249 233 213 207 248 274 245 179 206 214 221 221 228 239 239 234 242 220 259 163 83 114 122 117 111 118 128 135 140
298 284 276 291 253 211 234 223 198 208 265 264 244 234 219 230 188 184 199 245 221 248 131 220 238 228 224 220 228 233 234 231 221 129 166 153 133 124 146 124 112 123 125 134
325 271 258 239 234 241 245 259 94 322 281 258 264 296 262 203 209 197 196 258 240 337 258 216 212 48 196 219 221 216 212 190 152 134 134 139 145 133 109 107 103 109 120 138
271 271 254 235 201 227 358 332 302 303 309 327 312 262 290 64 197 210 218 202 287 230 214 201 15 335 310 240 192 187 181 163 146 144 149 133 125 120 114 112 108 111 115 125
255 262 254 243 323 204 300 304 315 322 323 317 301 255 246 163 271 269 298 226 215 251 306 341 325 310 305 143 160 165 157 151 149 137 128 118 118 115 109 104 106 108 115 122
234 234 255 255 271 302 332 318 324 337 337 334 257 309 290 225 224 236 216 227 343 13 321 312 318 81 115 117 125 129 132 132 127 123 119 114 113 115 112 107 105 110 120 125
228 232 255 271 288 293 304 310 308 331 340 333 295 349 304 294 235 216 310 19 341 311 338 71 77 91 97 104 109 112 112 110 111 111 112 113 113 113 111 111 113 121 136 152
Wind_Speed_850mb
59 64 68 70 73 64 51 9 4 6 11 13 10 20 13 7 29 14 14 12 13 15 14 13 13 36 40 41 47 53 49 26 30 38 39 30 38 30 32 17 26 19 25 2
60 62 66 66 66 61 48 16 4 9 4 9 12 14 20 22 26 26 28 22 11 7 12 9 9 9 13 13 47 50 45 38 29 29 18 21 43 36 30 42 42 27 26 19
58 61 63 63 63 53 32 13 5 7 10 7 14 8 17 16 13 22 22 25 21 25 27 24 15 11 2 12 33 30 51 37 46 32 36 33 32 36 47 42 30 35 27 29
56 58 59 60 60 47 25 14 7 5 6 7 16 16 10 14 10 6 12 16 27 24 24 22 31 26 19 24 15 16 38 42 47 43 37 35 43 38 46 49 48 35 36 32
52 54 58 56 58 48 18 17 15 17 24 14 16 9 10 12 9 8 7 16 5 10 19 23 19 9 20 6 17 22 39 37 40 47 41 44 38 41 48 51 49 46 42 36
47 50 53 54 53 50 17 17 13 9 10 10 12 4 8 6 10 10 15 12 16 20 14 21 28 32 36 32 19 13 19 26 23 37 40 44 47 55 50 47 47 46 43 35
42 43 47 48 49 42 24 20 12 10 13 13 14 15 20 28 25 26 19 23 20 8 33 49 43 45 43 36 30 29 12 19 16 21 27 47 28 41 50 49 46 46 35 31
38 40 42 42 43 40 21 21 5 6 14 23 30 15 17 19 25 31 35 34 31 31 32 19 23 24 24 34 35 31 31 20 13 12 25 18 18 22 27 37 44 40 37 36
37 37 37 38 37 37 28 13 5 5 16 2 14 27 26 22 25 21 18 11 20 16 12 16 21 25 26 27 20 26 31 27 18 17 28 30 27 16 30 32 33 39 45 35
38 37 37 37 34 32 27 15 12 8 12 20 12 14 16 13 13 14 17 10 4 11 14 19 21 25 26 33 41 29 27 25 29 23 25 24 2 11 11 24 10 27 28 36
37 38 37 36 35 30 26 19 27 13 15 52 41 36 40 41 33 18 17 17 8 9 10 15 18 16 18 28 34 39 31 25 23 27 26 26 21 17 19 9 10 4 8 20
38 37 37 35 34 33 26 28 20 30 35 52 64 69 70 62 54 34 18 21 12 7 8 6 9 14 8 22 23 7 26 28 21 19 22 11 3 4 4 11 11 9 12 18
40 39 37 38 34 33 33 36 31 37 39 56 31 25 18 32 54 62 37 24 19 11 6 10 7 11 7 15 28 20 15 6 13 7 17 8 6 10 13 14 16 13 12 20
42 42 39 35 37 37 37 41 41 34 21 10 12 13 12 16 26 40 66 43 4 10 16 18 12 10 2 8 11 15 4 17 13 11 8 12 21 24 17 17 16 13 18 28
41 44 40 44 44 42 46 51 49 40 31 9 30 62 4 11 27 40 45 58 49 30 16 13 14 16 10 11 7 16 11 12 15 13 4 12 23 18 15 18 19 22 31 37
45 45 46 46 45 44 32 15 8 11 29 8 8 18 16 9 11 29 39 41 41 35 15 14 21 29 9 8 15 9 15 11 16 11 10 12 18 14 15 19 27 33 33 36
43 46 46 47 46 42 24 12 7 4 22 8 9 10 8 4 12 15 21 30 28 24 26 22 30 17 9 14 17 6 9 9 14 17 11 8 14 11 20 33 35 39 37 38
42 46 52 50 41 26 25 27 38 20 12 8 6 9 11 4 13 10 15 22 27 24 24 22 21 27 16 9 19 10 4 4 4 13 20 9 18 27 31 35 41 44 43 43
41 48 45 23 4 7 5 6 5 29 16 7 8 7 6 4 4 5 9 19 11 16 15 20 19 21 19 19 18 7 10 7 8 16 26 26 26 28 30 31 30 34 35 36
42 32 6 6 5 5 15 11 12 25 15 15 8 12 14 14 4 5 3 8 11 10 18 23 24 25 44 41 23 7 8 17 17 23 33 30 35 30 28 27 24 27 29 29
14 7 6 11 16 11 8 9 13 15 7 15 14 27 20 12 12 6 7 5 8 9 13 14 17 23 37 49 42 32 18 13 20 14 18 14 18 30 28 27 23 26 28 28
17 23 28 18 3 9 9 7 7 10 5 3 6 9 18 13 16 7 7 8 3 10 7 9 16 18 39 45 53 48 31 13 9 3 15 26 8 25 27 29 29 24 26 25
13 3 5 6 6 7 8 5 3 7 2 6 12 5 10 17 21 9 6 6 8 7 7 10 4 19 4 21 32 40 26 20 16 23 24 33 35 24 21 23 20 20 22 23
5 6 6 8 8 5 5 9 4 9 15 32 33 9 5 4 4 6 8 8 8 7 12 8 10 20 16 8 21 36 33 31 27 33 33 35 35 31 27 25 23 23 25 26
6 5 7 7 7 5 4 13 14 16 26 31 19 10 6 2 4 6 4 6 7 7 4 7 23 18 7 8 25 37 43 44 42 39 36 38 36 35 34 28 26 26 28 28
6 9 12 16 19 6 14 15 20 19 36 28 8 4 6 4 5 5 9 6 2 7 8 25 12 10 18 27 35 40 44 46 45 42 39 37 33 32 31 27 24 22 22 22
7 10 15 21 23 19 18 14 17 22 15 5 7 3 4 8 6 7 3 5 7 14 15 12 24 33 37 40 45 47 48 46 42 41 37 34 29 26 24 21 17 14 14 13
Wind_Direction_850mb
354 356 356 356 351 351 2 354 266 71 134 221 212 239 249 338 263 221 264 281 276 287 308 280 258 225 209 209 207 206 218 206 187 203 203 219 205 189 182 221 249 248 291 63
351 355 357 359 355 353 353 332 337 284 311 269 211 221 254 249 265 251 249 248 241 295 291 304 268 237 245 263 213 206 208 231 218 161 168 209 219 195 195 193 251 269 251 238
349 352 357 0 1 355 355 320 268 163 238 283 296 307 248 260 217 259 267 258 261 258 255 257 274 284 245 206 233 191 220 216 233 212 210 187 204 216 195 208 219 249 239 257
347 350 357 360 5 5 23 350 40 3 294 186 311 287 287 270 269 240 251 240 243 262 252 242 251 255 263 234 212 227 224 221 237 231 255 207 196 206 211 209 224 242 253 239
346 349 354 0 3 12 34 359 347 329 285 279 274 230 237 267 294 277 224 258 54 253 256 254 331 0 269 3 185 208 210 222 234 245 229 244 231 225 220 215 225 237 250 263
344 348 352 356 5 14 25 8 337 312 290 289 269 278 313 304 327 246 263 316 306 271 335 340 300 285 281 278 294 278 198 222 212 234 229 238 239 224 230 235 228 225 239 247
342 344 349 352 357 13 12 5 1 308 301 303 305 298 290 284 279 270 273 298 292 305 317 306 271 249 256 255 248 238 251 218 203 237 211 226 240 235 229 238 234 240 237 254
338 339 343 347 349 358 9 347 18 319 295 313 293 297 288 284 283 259 267 276 270 289 297 277 247 227 226 230 233 222 221 224 199 213 214 228 213 221 239 235 238 237 234 232
331 334 337 340 341 345 358 336 345 301 303 354 325 310 296 285 288 276 246 272 283 271 258 255 245 223 207 207 190 213 207 226 262 195 248 234 250 207 211 239 244 229 229 230
326 327 331 331 331 332 339 320 319 292 264 286 305 279 311 305 280 281 288 323 297 224 239 242 242 244 228 219 199 180 197 212 219 223 241 248 139 96 154 207 233 224 219 227
322 324 325 326 323 320 324 298 285 269 258 290 282 268 262 261 259 271 318 293 187 226 249 240 230 255 229 242 217 196 199 200 213 235 229 234 130 141 217 355 42 17 232 224
321 321 320 318 317 311 309 300 285 281 260 267 283 274 259 252 248 278 268 285 298 293 267 250 308 242 254 247 211 206 227 210 230 227 217 111 264 5 5 325 322 318 245 195
314 316 317 316 313 307 298 291 293 286 284 295 278 283 288 257 237 232 244 255 231 233 289 312 280 270 305 245 241 200 197 263 241 178 200 229 258 259 265 283 281 284 237 188
310 314 313 314 312 305 296 282 288 274 271 283 296 338 331 262 251 230 220 225 249 262 274 273 273 278 75 290 321 269 335 161 187 216 273 284 282 273 279 266 250 223 192 174
306 312 312 308 309 307 299 295 282 256 225 284 293 307 280 289 228 227 220 225 238 258 274 233 252 272 287 229 275 254 195 190 215 236 306 272 279 294 279 239 208 179 169 157
309 309 308 307 304 305 308 307 256 249 214 257 285 309 296 273 240 213 214 218 222 223 225 245 255 259 272 272 255 246 230 235 273 283 331 291 280 259 239 199 168 154 161 157
310 309 302 304 301 291 245 251 234 254 178 237 276 280 198 247 144 163 185 194 202 209 221 230 251 244 231 263 259 249 269 280 268 255 242 228 194 176 156 154 144 135 137 139
313 308 306 304 302 275 254 250 243 222 206 227 269 272 252 203 216 154 173 178 198 206 230 236 228 235 225 257 233 268 269 253 205 197 193 205 153 139 133 135 133 129 133 138
315 310 308 307 238 213 245 113 184 228 222 270 242 267 330 92 44 122 195 199 202 204 221 229 218 215 222 223 240 275 193 133 94 160 156 141 137 133 131 129 129 131 137 145
316 317 304 261 231 244 304 245 200 202 219 227 249 251 255 309 251 178 255 209 249 204 215 220 222 235 224 234 230 221 235 237 197 128 124 134 124 122 128 121 127 139 141 147
339 302 267 279 276 299 237 236 201 184 221 211 238 235 242 249 233 213 207 248 274 245 179 206 214 221 221 228 239 239 234 242 220 259 163 83 114 122 117 111 118 128 135 140
298 284 276 291 253 211 234 223 198 208 265 264 244 234 219 230 188 184 199 245 221 248 131 220 238 228 224 220 228 233 234 231 221 129 166 153 133 124 146 124 112 123 125 134
325 271 258 239 234 241 245 259 94 322 281 258 264 296 262 203 209 197 196 258 240 337 258 216 212 48 196 219 221 216 212 190 152 134 134 139 145 133 109 107 103 109 120 138
271 271 254 235 201 227 358 332 302 303 309 327 312 262 290 64 197 210 218 202 287 230 214 201 15 335 310 240 192 187 181 163 146 144 149 133 125 120 114 112 108 111 115 125
255 262 254 243 323 204 300 304 315 322 323 317 301 255 246 163 271 269 298 226 215 251 306 341 325 310 305 143 160 165 157 151 149 137 128 118 118 115 109 104 106 108 115 122
234 234 255 255 271 302 332 318 324 337 337 334 257 309 290 225 224 236 216 227 343 13 321 312 318 81 115 117 125 129 132 132 127 123 119 114 113 115 112 107 105 110 120 125
228 232 255 271 288 293 304 310 308 331 340 333 295 349 304 294 235 216 310 19 341 311 338 71 77 91 97 104 109 112 112 110 111 111 112 113 113 113 111 111 113 121 136 152